Location: Cabeza Gorda
(40.0667°N, 4.9667°W)
Time: 19:56:39
(UTC+00:00)

BREEZE M DEB (TANK) - Pass Details

Date: 15 January 2026
Orbit: 288 x 11207 km, 49.5° (Epoch: 10 February)

Event Time Altitude Azimuth Distance (km) Brightness Sun altitude
Exits shadow 05:23:19 25° 30° (NNE) 1,068 3.9 -25.7°
Drops below altitude 10° 05:27:46 10° 86° (E) 2,728 6.9 -24.9°
Sets 05:32:44 0° 97° (E) 4,937 8.6 -24.0°
